| time (UTC) | temp C | wind direction | speed KPH | gust KPH | rain 1hr cm | rain 24hr cm | rain mn cm | humidity % | barometer mb |
| 20260504082006 | 15 | 22 | 1.6 | 6.4 | 0.00 | 0.05 | 0.05 | 83 | 1016.4 |
| 20260504081006 | 15 | 50 | 4.8 | 6.4 | 0.00 | 0.05 | 0.05 | 83 | 1016.5 |
| 20260504045005 | 13 | 324 | 3.2 | 6.4 | 0.00 | 0.05 | 0.05 | 81 | 1015.7 |
| 20260504044006 | 12 | 0 | 0.0 | 3.2 | 0.00 | 0.05 | 0.05 | 79 | 1015.7 |
| 20260504043005 | 12 | 274 | 1.6 | 3.2 | 0.00 | 0.05 | 0.05 | 78 | 1015.5 |
| 20260504042006 | 12 | 265 | 3.2 | 3.2 | 0.00 | 0.05 | 0.05 | 78 | 1015.7 |
| 20260504041006 | 12 | 274 | 3.2 | 3.2 | 0.00 | 0.05 | 0.05 | 76 | 1015.8 |
| 20260504040006 | 12 | 264 | 3.2 | 3.2 | 0.00 | 0.05 | 0.05 | 73 | 1015.7 |
| 20260504035005 | 12 | 225 | 1.6 | 6.4 | 0.00 | 0.05 | 0.05 | 70 | 1015.7 |
| 20260504034006 | 12 | 0 | 0.0 | 6.4 | 0.00 | 0.05 | 0.05 | 64 | 1015.7 |
| 20260504033005 | 13 | 187 | 3.2 | 11.3 | 0.00 | 0.05 | 0.05 | 68 | 1015.3 |
| 20260504032006 | 12 | 129 | 6.4 | 12.9 | 0.00 | 0.05 | 0.05 | 67 | 1015.6 |
| 20260504031005 | 12 | 0 | 0.0 | 3.2 | 0.00 | 0.05 | 0.05 | 63 | 1015.5 |
| 20260504030006 | 12 | 246 | 1.6 | 3.2 | 0.00 | 0.05 | 0.05 | 66 | 1015.6 |
| 20260504025006 | 12 | 0 | 0.0 | 6.4 | 0.00 | 0.05 | 0.05 | 68 | 1015.5 |
| 20260504023006 | 12 | 280 | 3.2 | 3.2 | 0.00 | 0.05 | 0.05 | 59 | 1015.9 |
| 20260504022006 | 12 | 280 | 1.6 | 3.2 | 0.00 | 0.05 | 0.05 | 57 | 1015.8 |
| 20260504021005 | 12 | 273 | 3.2 | 6.4 | 0.00 | 0.05 | 0.05 | 58 | 1015.8 |
| 20260504015005 | 12 | 246 | 3.2 | 6.4 | 0.00 | 0.05 | 0.05 | 69 | 1015.9 |
| 20260504014005 | 11 | 276 | 3.2 | 6.4 | 0.03 | 0.05 | 0.05 | 72 | 1015.9 |
| 20260504013005 | 11 | 0 | 0.0 | 6.4 | 0.05 | 0.05 | 0.05 | 77 | 1015.8 |
| 20260504012007 | 11 | 262 | 3.2 | 6.4 | 0.05 | 0.05 | 0.05 | 83 | 1016.0 |
| 20260504011005 | 11 | 227 | 3.2 | 3.2 | 0.05 | 0.05 | 0.05 | 80 | 1016.0 |
| 20260504010006 | 11 | 288 | 1.6 | 6.4 | 0.05 | 0.05 | 0.05 | 82 | 1016.2 |
| 20260504004005 | 11 | 0 | 0.0 | 6.4 | 0.03 | 0.03 | 0.03 | 83 | 1016.4 |
| 20260504003005 | 12 | 175 | 4.8 | 6.4 | 0.00 | 0.00 | 0.00 | 76 | 1016.6 |
| 20260504002005 | 12 | 228 | 3.2 | 3.2 | 0.00 | 0.00 | 0.00 | 73 | 1016.7 |
| 20260504001006 | 12 | 253 | 1.6 | 3.2 | 0.00 | 0.00 | 0.00 | 76 | 1016.8 |
| 20260504000006 | 12 | 260 | 1.6 | 3.2 | 0.00 | 0.00 | 0.00 | 76 | 1017.0 |
| 20260503235005 | 12 | 0 | 0.0 | 6.4 | 0.00 | 0.00 | 0.00 | 79 | 1017.0 |
| 20260503234005 | 12 | 163 | 3.2 | 9.7 | 0.00 | 0.00 | 0.00 | 76 | 1016.9 |
| 20260503233006 | 12 | 64 | 4.8 | 6.4 | 0.00 | 0.00 | 0.00 | 82 | 1016.9 |
| 20260503231005 | 12 | 204 | 1.6 | 3.2 | 0.00 | 0.00 | 0.00 | 83 | 1017.2 |
| 20260503225005 | 12 | 0 | 0.0 | 3.2 | 0.00 | 0.00 | 0.00 | 85 | 1016.8 |
| 20260503224006 | 12 | 0 | 0.0 | 3.2 | 0.00 | 0.00 | 0.00 | 84 | 1016.6 |
| 20260503222005 | 12 | 0 | 0.0 | 0.0 | 0.00 | 0.00 | 0.00 | 83 | 1016.8 |
| 20260503221005 | 12 | 0 | 0.0 | 0.0 | 0.00 | 0.00 | 0.00 | 83 | 1017.0 |
| 20260503215005 | 12 | 0 | 0.0 | 3.2 | 0.00 | 0.00 | 0.00 | 82 | 1017.0 |
| 20260503214005 | 12 | 239 | 1.6 | 3.2 | 0.00 | 0.00 | 0.00 | 82 | 1017.0 |
| 20260503212005 | 12 | 0 | 0.0 | 3.2 | 0.00 | 0.00 | 0.00 | 83 | 1017.0 |
| 20260503211005 | 12 | 0 | 0.0 | 0.0 | 0.00 | 0.00 | 0.00 | 83 | 1017.1 |
| 20260503210006 | 12 | 0 | 0.0 | 3.2 | 0.00 | 0.00 | 0.00 | 83 | 1017.2 |
| 20260503205005 | 12 | 0 | 0.0 | 3.2 | 0.00 | 0.00 | 0.00 | 83 | 1017.1 |
| 20260503204005 | 12 | 0 | 0.0 | 3.2 | 0.00 | 0.00 | 0.00 | 82 | 1017.1 |
| 20260503202004 | 12 | 229 | 1.6 | 3.2 | 0.00 | 0.00 | 0.00 | 83 | 1017.4 |
| 20260503201005 | 12 | 0 | 0.0 | 3.2 | 0.00 | 0.00 | 0.00 | 82 | 1017.0 |
| 20260503200005 | 12 | 0 | 0.0 | 3.2 | 0.00 | 0.00 | 0.00 | 82 | 1017.2 |
| 20260503194005 | 12 | 0 | 0.0 | 0.0 | 0.00 | 0.00 | 0.00 | 84 | 1017.1 |
| 20260503193004 | 12 | 0 | 0.0 | 3.2 | 0.00 | 0.00 | 0.00 | 83 | 1017.0 |
| 20260503192005 | 12 | 253 | 1.6 | 3.2 | 0.00 | 0.00 | 0.00 | 83 | 1017.0 |
| 20260503191004 | 12 | 0 | 0.0 | 3.2 | 0.00 | 0.00 | 0.00 | 84 | 1016.7 |
| 20260503190005 | 12 | 0 | 0.0 | 3.2 | 0.00 | 0.00 | 0.00 | 83 | 1016.4 |
| 20260503184005 | 12 | 0 | 0.0 | 3.2 | 0.00 | 0.00 | 0.00 | 80 | 1016.6 |
| 20260503183005 | 12 | 0 | 0.0 | 3.2 | 0.00 | 0.00 | 0.00 | 80 | 1016.6 |
| 20260503182006 | 13 | 0 | 0.0 | 3.2 | 0.00 | 0.00 | 0.00 | 79 | 1016.8 |
| 20260503180005 | 13 | 0 | 0.0 | 3.2 | 0.00 | 0.00 | 0.00 | 76 | 1016.6 |
| 20260503175005 | 13 | 349 | 1.6 | 6.4 | 0.00 | 0.00 | 0.00 | 73 | 1016.7 |
| 20260503174004 | 13 | 0 | 0.0 | 3.2 | 0.00 | 0.00 | 0.00 | 70 | 1016.6 |
| 20260503173005 | 14 | 0 | 0.0 | 12.9 | 0.00 | 0.00 | 0.00 | 74 | 1016.6 |
| 20260503172004 | 14 | 67 | 4.8 | 12.9 | 0.00 | 0.00 | 0.00 | 78 | 1016.7 |
| 20260503171004 | 15 | 94 | 9.7 | 12.9 | 0.00 | 0.00 | 0.00 | 74 | 1016.8 |
| 20260503151004 | 15 | 117 | 9.7 | 20.9 | 0.00 | 0.00 | 0.00 | 66 | 1017.1 |
| 20260503131004 | 16 | 120 | 9.7 | 17.7 | 0.00 | 0.00 | 0.00 | 64 | 1018.0 |